Theta_e
302 302 302 302 302 302 303 303 304 304 304 305 307 311 304 304 302 315 317 318 315 308 298 300 296 296 298 300 298 299 296 295 299 296 298 296 298 297 296 295 294 296 295 296 296 297 294 296 295 297 298 300 303 304 305 307 305 304 300 301 304 304 296 294 295 298 300 303 304 304 304 303 300 301 303 301 297 299 296 294 296 292 291 290 291 287 293
302 302 301 302 302 302 303 303 304 305 304 303 305 305 304 305 305 307 315 320 315 305 291 292 293 296 299 298 297 298 298 297 296 294 297 296 297 295 296 296 297 296 298 297 294 298 290 296 297 297 300 299 306 305 305 306 302 302 304 299 304 294 298 296 291 290 292 296 299 300 302 301 298 298 301 301 301 302 301 301 300 290 294 292 288 284 290
301 301 302 302 302 303 303 304 304 305 304 305 305 304 306 307 308 307 310 315 312 300 300 296 293 296 296 296 295 296 296 297 299 299 297 299 298 298 296 297 298 296 298 296 297 298 296 296 298 299 302 301 305 306 306 306 305 308 307 309 306 297 297 295 288 285 282 282 286 287 292 296 298 300 300 301 300 300 298 292 295 288 293 294 290 290 298
301 301 301 302 302 303 303 304 304 305 304 303 304 306 306 304 292 303 304 308 306 305 305 301 297 295 296 291 295 296 295 297 297 298 297 299 300 298 298 299 299 296 295 294 294 294 298 296 297 298 296 301 304 307 307 307 308 308 308 308 307 299 301 299 295 291 289 291 295 298 298 298 294 298 298 297 300 301 302 299 293 289 293 292 296 296 298
300 301 301 302 302 302 303 304 304 304 303 303 304 307 305 304 297 297 294 303 302 300 300 298 298 295 298 290 295 293 294 296 297 299 295 299 297 298 297 297 295 295 295 294 294 296 295 298 297 297 297 299 304 306 306 306 306 306 306 308 304 300 293 299 300 299 298 297 297 297 298 295 296 295 297 297 299 301 301 293 292 301 293 288 297 300 297
300 301 302 302 302 303 303 304 304 304 303 303 306 304 305 295 301 303 306 296 293 294 294 300 297 298 297 295 297 294 294 294 292 297 298 299 299 296 297 296 296 295 295 296 291 294 295 295 292 299 298 299 303 302 304 303 304 305 305 307 304 300 294 298 299 297 300 299 298 298 298 299 298 298 301 300 302 301 299 300 301 299 293 290 295 300 299
300 301 301 301 302 303 303 304 305 304 302 303 307 302 305 306 304 304 305 295 298 299 299 299 298 296 296 296 296 294 294 293 295 295 297 296 297 297 290 294 295 296 297 296 293 294 290 289 299 299 300 300 300 299 302 304 305 305 307 305 307 301 295 298 298 296 298 298 299 300 297 298 299 298 299 301 301 301 302 301 300 302 301 300 300 300 296
300 301 301 301 302 302 303 304 305 304 301 304 306 306 303 300 300 297 301 302 299 299 300 298 297 295 296 291 295 294 294 293 296 296 295 291 295 298 295 295 296 296 296 296 293 298 299 299 292 302 300 300 302 300 300 298 303 303 302 303 305 299 292 297 298 295 295 298 298 298 298 298 296 296 297 299 300 301 300 300 300 301 301 300 299 297 293
300 300 301 301 302 302 303 304 304 304 303 306 306 308 307 308 308 306 298 295 297 297 297 296 296 293 293 293 294 295 295 294 296 296 299 297 294 296 295 296 296 297 297 297 297 298 299 299 300 299 300 297 301 298 301 301 298 301 301 302 301 301 293 300 295 289 291 297 298 298 297 296 294 293 293 294 295 295 297 294 297 297 296 300 299 296 293
300 300 301 301 302 302 303 303 304 304 303 305 308 303 312 309 309 308 303 294 295 296 297 297 295 290 295 297 295 294 295 296 296 291 297 298 298 298 297 298 297 295 296 296 298 300 300 300 301 301 302 304 303 304 302 301 295 298 300 302 298 300 297 294 293 289 289 296 297 296 297 295 289 286 289 292 294 296 298 297 297 297 298 295 293 295 298
299 300 300 301 301 302 303 303 304 304 305 307 308 306 308 305 303 303 302 294 292 296 296 295 295 296 297 298 296 296 296 296 297 292 290 298 297 299 299 298 296 295 295 299 301 302 302 302 303 303 303 304 304 303 302 302 302 300 301 300 300 301 298 293 296 287 289 294 297 297 291 284 284 289 294 294 290 293 294 293 295 296 298 295 297 296 298
299 300 300 301 301 302 303 303 304 304 304 308 309 307 313 313 308 304 297 292 291 298 295 292 294 295 296 296 297 296 295 295 296 298 295 297 298 299 299 299 298 290 300 304 304 303 303 303 302 303 303 303 303 304 303 302 301 302 302 301 300 297 296 293 296 289 288 293 294 288 282 282 289 295 295 296 296 295 294 295 295 295 297 298 296 295 294
299 300 300 301 301 302 302 303 304 304 304 308 310 308 315 315 309 303 299 296 292 294 293 294 295 295 296 296 296 296 297 297 298 298 297 297 297 298 299 298 298 298 302 301 302 301 297 296 296 298 299 301 301 301 300 300 299 302 303 303 300 293 293 294 290 289 290 289 288 281 281 287 292 291 294 296 297 295 295 293 294 294 294 296 295 294 293
299 300 300 301 301 302 302 303 303 304 304 306 308 311 314 313 307 303 300 295 292 297 299 294 293 294 295 295 295 296 296 297 298 299 297 300 298 297 299 299 300 302 302 303 301 299 296 297 291 292 295 297 296 296 297 299 299 298 299 301 301 299 297 293 289 293 285 287 287 284 288 289 289 289 290 291 287 289 289 286 289 293 294 296 295 294 293
299 299 300 300 301 302 302 303 303 304 305 304 309 312 313 313 311 307 305 300 293 295 296 290 295 297 295 295 294 293 294 295 295 295 298 300 298 299 300 300 303 302 304 300 298 299 294 292 287 287 289 288 282 286 297 293 298 299 298 299 300 300 293 294 289 288 291 286 283 283 284 281 283 289 293 296 295 293 292 291 288 293 294 296 295 292 292
299 299 300 300 301 302 302 303 303 304 305 304 310 311 311 312 310 308 306 300 296 288 294 298 298 295 295 294 295 295 293 292 294 296 296 297 297 299 300 302 303 304 301 299 300 296 293 288 285 285 283 285 291 289 288 294 293 297 300 299 298 300 301 297 291 289 289 288 284 283 281 281 288 290 293 295 297 295 292 290 286 291 294 295 294 293 293
299 299 300 300 301 301 302 303 303 304 305 304 307 311 309 314 310 310 304 301 299 291 297 297 298 297 295 293 295 296 297 293 295 291 290 293 296 296 299 301 305 304 301 299 298 294 291 289 289 289 290 290 287 287 292 292 291 292 296 296 295 295 294 293 289 287 288 287 285 281 284 282 288 292 294 296 297 297 292 284 283 290 294 295 294 293 292
299 299 299 300 301 301 302 303 303 304 304 305 307 311 308 315 314 313 306 301 294 294 297 298 298 297 295 296 295 296 297 297 296 298 295 296 295 296 297 299 298 300 303 296 295 291 288 289 287 286 284 292 293 293 285 291 286 288 289 289 290 290 291 291 287 289 287 286 284 285 284 289 292 293 296 296 298 294 285 282 284 292 295 296 295 294 295
299 299 299 300 300 301 302 303 304 304 305 305 308 312 307 310 316 312 310 300 297 290 297 299 300 298 299 300 299 298 297 299 299 292 292 292 296 298 298 298 301 294 298 294 294 290 289 288 294 289 286 288 294 286 291 287 285 288 291 289 289 289 289 290 290 287 287 288 285 284 284 289 294 295 297 297 292 285 284 288 294 294 296 296 296 295 296
298 299 299 300 300 301 302 303 304 305 305 305 306 306 307 315 312 314 308 298 299 295 298 299 299 296 299 299 297 297 299 300 298 295 294 292 299 299 297 293 298 299 296 299 289 294 290 288 290 293 289 289 290 293 289 288 293 290 289 291 288 288 287 287 287 288 289 288 285 284 279 287 295 295 295 294 287 286 290 292 295 298 297 297 297 297 297
298 299 299 299 300 301 303 303 304 305 305 305 305 309 302 310 314 317 315 305 299 293 294 301 301 299 300 299 300 298 297 295 296 295 298 299 301 298 288 289 294 296 291 293 288 289 291 289 293 290 292 291 291 293 286 287 290 295 293 289 289 293 287 288 288 291 285 283 280 279 285 290 295 294 286 290 292 293 294 293 293 296 297 296 295 296 296
298 299 299 299 300 302 302 304 304 305 305 305 305 315 302 307 310 312 310 308 300 296 299 302 302 302 301 302 302 302 300 299 299 301 299 297 302 299 297 298 297 298 297 298 293 292 295 294 296 291 289 290 296 289 291 288 285 291 296 294 284 293 290 291 286 290 287 283 285 289 292 294 295 296 294 295 296 296 295 294 293 294 295 297 295 295 296
298 298 299 299 300 301 302 303 304 304 305 305 308 310 301 304 305 312 310 301 302 303 304 303 303 303 303 302 303 303 304 304 305 305 305 300 296 301 300 299 298 301 300 300 297 295 295 294 290 293 291 292 291 290 292 290 287 290 287 294 292 296 296 296 293 289 293 293 293 294 294 294 295 296 297 296 296 296 295 293 292 293 295 296 294 294 295
298 298 299 299 300 301 302 303 304 304 304 304 306 311 305 306 307 308 304 303 299 296 299 303 299 294 297 297 300 303 303 302 302 305 307 304 297 296 300 302 302 303 302 303 306 297 295 294 293 294 287 292 294 289 286 285 287 292 290 290 293 295 297 295 289 294 290 283 292 292 293 295 295 295 296 297 297 295 295 293 293 293 295 294 295 294 295
298 298 299 299 300 301 302 303 304 304 304 305 308 310 308 307 310 310 303 293 295 294 289 292 295 299 300 302 303 301 302 304 306 306 308 308 306 300 298 302 306 304 301 304 307 301 296 291 292 291 287 294 295 287 294 289 288 295 287 289 291 290 298 293 293 292 287 286 292 293 295 296 297 297 296 295 296 296 296 295 295 294 295 295 295 296 296
298 298 298 299 300 301 302 303 303 303 303 304 306 312 308 306 313 312 308 306 303 298 290 289 294 301 302 301 299 301 304 304 304 304 306 305 306 308 306 306 306 310 308 308 306 299 296 294 293 292 290 290 299 291 290 293 292 295 291 288 294 294 296 287 292 289 291 293 294 294 295 295 295 296 297 297 297 296 296 296 296 296 295 295 295 295 295
298 298 298 299 300 301 302 302 303 303 303 304 308 312 308 309 314 310 308 306 298 291 293 290 295 298 300 298 301 303 303 303 304 304 304 304 306 308 308 306 305 305 304 302 303 298 297 295 294 291 294 292 297 294 295 292 293 290 289 294 297 294 290 294 292 287 287 288 291 294 288 287 292 294 296 297 298 297 297 297 297 297 296 296 296 296 296
297 298 298 299 300 301 302 302 303 303 304 304 310 311 312 310 311 312 314 312 304 293 292 292 293 297 302 298 301 303 303 303 303 304 303 304 306 307 307 305 305 302 301 298 293 294 293 291 290 293 293 296 293 290 296 295 295 292 291 292 296 293 294 295 289 288 286 292 295 296 295 294 294 295 297 297 297 297 297 296 297 297 298 297 296 295 296
297 298 298 299 300 301 302 302 303 303 303 305 313 311 309 311 311 313 312 316 314 301 297 297 300 299 292 296 302 302 303 304 304 303 303 302 303 305 304 304 303 301 300 298 295 294 293 292 295 294 293 299 296 290 292 286 286 285 289 294 295 296 297 295 295 295 295 297 296 297 295 292 294 296 297 297 298 297 296 297 297 297 297 298 297 297 295
297 298 299 299 300 301 302 302 303 303 303 309 311 306 299 301 310 311 312 312 314 307 295 291 288 290 302 301 299 300 301 303 304 304 303 303 303 303 303 303 302 302 300 295 294 291 293 293 294 299 300 304 293 291 288 289 286 288 294 295 296 297 297 298 298 296 294 297 297 296 296 296 297 297 297 298 299 298 297 297 297 297 297 298 297 297 297
298 298 299 299 300 301 301 302 303 303 303 311 307 296 294 291 302 310 308 312 315 308 296 295 291 295 295 300 301 298 300 301 302 302 303 303 302 302 303 303 302 301 295 294 294 292 293 290 292 294 299 299 295 291 289 287 286 288 292 295 295 296 296 296 298 299 298 298 298 298 297 297 297 296 296 296 297 297 297 298 298 297 297 297 297 298 297
298 298 299 299 300 301 302 302 303 303 310 307 303 300 302 305 308 307 308 310 312 305 294 290 290 290 290 294 299 302 301 301 302 303 302 304 301 303 302 301 297 301 296 294 295 294 292 293 292 294 295 297 294 291 291 288 285 287 293 294 296 296 297 296 297 297 298 299 297 295 295 295 296 294 293 297 297 298 298 297 298 298 297 298 298 298 297
298 298 299 300 300 301 302 303 303 304 309 306 303 302 304 302 303 306 309 315 310 301 302 294 288 290 289 293 299 301 302 302 300 301 298 303 299 301 297 301 300 299 301 296 292 290 295 293 293 291 295 299 292 290 288 287 289 294 294 295 295 296 296 297 297 297 298 298 298 293 291 293 295 296 297 297 297 296 297 296 297 297 297 296 296 296 296
298 298 299 300 301 301 302 302 303 302 303 306 307 306 310 303 308 305 312 316 305 303 299 292 288 288 289 299 294 297 302 296 295 298 292 302 302 300 295 298 299 293 297 294 294 294 294 293 291 290 294 291 292 289 285 289 293 293 295 295 296 296 296 296 296 296 296 297 298 298 297 297 298 297 297 296 296 297 298 297 297 295 295 295 295 296 296
298 299 299 300 301 302 302 302 308 308 304 304 304 307 309 303 302 304 312 312 293 291 292 292 293 288 288 291 289 294 302 299 293 296 292 296 303 297 297 292 293 291 292 302 293 293 290 292 296 290 287 293 289 285 287 290 292 293 294 294 295 295 295 294 294 296 297 297 297 297 298 298 296 295 295 295 296 296 296 296 297 295 294 294 295 295 296
298 299 300 301 301 302 306 306 308 304 302 301 303 307 302 305 307 317 317 313 305 294 291 290 292 290 290 286 285 290 300 296 298 298 297 295 296 300 298 294 289 293 300 294 289 293 290 296 293 287 291 288 285 288 290 293 293 293 294 294 296 296 295 295 295 295 296 297 297 297 297 297 296 295 295 295 296 296 296 295 296 295 295 294 294 295 296
298 299 300 301 303 305 304 300 304 307 306 308 308 303 301 305 313 314 312 310 308 306 298 292 291 292 294 290 291 292 298 289 296 294 295 292 291 293 294 291 288 291 291 290 290 289 293 300 292 287 288 286 288 293 294 294 294 293 293 295 295 295 295 296 297 296 296 296 296 296 295 295 295 295 295 295 295 296 296 295 295 294 295 295 295 294 295
299 300 302 303 304 296 294 297 304 308 305 303 303 304 304 305 296 297 296 295 299 301 296 299 292 296 297 293 288 297 298 292 298 290 291 293 290 290 293 290 289 291 286 288 291 298 294 291 289 287 287 293 294 294 294 295 295 296 296 295 295 296 296 296 296 295 294 293 292 293 293 294 294 295 294 294 295 295 295 297 298 296 296 295 295 295 296
299 303 304 305 300 293 295 303 309 300 311 305 306 298 294 297 294 290 291 294 293 292 296 296 291 296 295 293 294 300 298 292 291 292 288 295 290 285 291 285 289 290 286 286 288 299 287 287 288 287 286 290 291 293 295 296 296 296 296 297 297 297 297 297 297 296 295 294 295 295 295 293 293 294 295 295 295 296 297 297 298 297 296 296 296 296 296
302 301 297 298 297 299 304 304 300 303 306 297 298 295 289 294 290 287 294 289 290 292 294 291 297 297 298 293 291 292 301 298 289 288 290 291 298 288 290 290 290 288 282 284 286 297 287 283 287 286 285 289 290 294 295 295 295 296 296 296 297 297 297 297 297 297 296 297 297 297 297 296 296 296 295 295 295 295 295 296 296 298 297 297 297 296 296
303 302 299 296 301 302 301 303 307 306 298 292 291 291 290 287 292 292 290 288 288 289 297 296 297 295 297 297 296 291 298 303 299 299 293 288 295 295 288 285 291 286 284 284 289 291 289 286 286 286 286 290 292 294 295 295 295 295 296 297 297 297 297 297 297 297 297 296 296 297 297 297 297 297 297 297 296 296 295 294 296 297 298 298 296 296 298
306 305 306 307 305 304 304 302 299 293 292 293 288 285 288 289 291 290 291 287 287 290 294 295 290 294 293 298 296 296 295 300 296 293 291 286 291 290 287 288 289 285 282 288 290 290 288 283 284 285 289 293 294 295 295 295 295 296 296 296 297 297 298 297 296 296 297 296 297 297 297 297 297 296 296 297 296 297 297 296 296 297 297 298 299 299 298
298 299 306 302 299 296 297 291 292 292 284 285 284 282 287 284 286 286 287 292 294 294 294 302 298 300 300 301 297 299 294 301 294 292 290 287 291 291 287 285 285 282 286 292 289 286 283 283 284 287 292 293 294 295 295 296 296 296 296 297 297 298 298 297 297 297 297 297 297 297 297 297 297 297 297 297 297 297 297 296 297 297 298 298 298 299 299
306 305 299 295 292 292 293 282 292 288 285 286 283 279 283 283 286 289 287 289 291 293 296 294 294 294 289 295 294 291 293 295 295 293 290 291 289 286 285 282 284 290 293 287 286 283 284 286 288 291 293 294 295 295 295 295 296 296 296 296 297 297 297 297 297 297 296 297 297 297 297 297 297 298 297 297 297 296 296 297 298 298 297 298 298 298 299
297 294 292 290 287 290 288 280 290 286 281 283 286 285 285 284 286 289 289 292 296 293 296 297 296 296 292 296 296 294 294 290 295 290 285 289 286 287 285 284 288 288 285 283 284 285 285 284 290 293 293 293 294 295 296 296 296 296 296 296 297 297 297 296 296 296 296 296 296 296 296 296 296 297 297 297 298 298 297 297 298 297 298 298 298 298 299
292 290 289 284 279 286 287 283 284 282 287 288 287 290 290 292 292 292 297 298 297 296 295 296 297 296 292 294 291 290 292 292 289 289 290 289 285 283 288 291 289 284 283 284 282 282 283 287 290 292 294 294 294 295 296 296 296 296 296 295 295 296 296 296 296 296 295 296 297 297 296 296 296 296 297 297 298 298 298 298 298 298 298 298 297 298 299
292 292 292 289 283 286 290 284 284 288 290 291 293 294 295 296 297 297 298 299 297 298 298 299 298 296 292 291 291 291 293 292 287 289 291 285 283 286 290 286 281 283 280 280 281 283 285 289 292 294 295 295 295 296 296 296 296 296 296 296 296 296 296 296 296 296 297 296 297 296 297 296 296 297 297 297 298 298 298 298 299 299 299 297 298 298 299
288 292 292 283 282 286 284 288 294 293 295 296 295 297 298 298 296 295 298 300 299 299 297 296 292 293 292 295 296 289 290 290 287 287 290 287 287 284 283 283 282 284 284 283 283 288 290 291 293 293 295 296 296 295 296 296 296 296 296 296 296 296 296 296 296 296 296 297 296 296 297 297 297 296 296 297 297 297 298 299 299 299 299 299 299 298 298
293 290 287 286 288 287 288 291 292 290 292 294 295 295 295 295 294 296 299 300 298 297 298 296 292 292 288 292 290 288 286 289 284 284 288 286 282 278 279 277 280 279 285 287 288 290 291 294 295 295 296 296 296 296 296 296 296 296 296 296 296 296 296 296 297 297 297 297 297 296 296 297 297 297 297 297 296 297 298 299 300 299 299 299 299 298 297
290 289 290 289 288 290 294 293 293 290 292 293 293 293 295 295 295 297 300 298 299 297 298 295 295 292 290 290 286 287 286 289 287 286 285 282 283 284 283 279 281 283 285 289 291 292 294 295 296 295 295 296 295 296 296 296 294 295 296 297 297 297 297 297 297 297 297 297 297 298 297 296 297 296 296 296 297 298 298 299 298 298 299 299 299 298 298
293 291 290 296 290 288 291 286 288 288 289 290 293 294 295 294 295 295 301 299 299 295 292 289 290 289 287 287 285 282 285 290 286 284 284 283 286 285 282 281 284 289 290 293 294 295 295 296 295 295 295 296 296 296 296 296 296 296 297 296 296 297 297 297 297 297 298 298 298 293 297 297 297 298 298 299 298 297 297 297 298 299 299 299 299 299 299
289 287 288 291 295 294 293 295 295 293 293 295 295 297 297 295 297 298 301 298 295 291 290 292 290 287 285 283 285 289 290 287 285 286 284 286 288 285 284 287 289 291 292 292 293 294 294 296 296 294 296 295 295 296 296 296 296 297 297 297 297 296 296 296 297 297 297 297 297 297 297 298 298 299 299 298 297 297 295 295 297 299 299 300 299 300 299
Wind_Speed
14 13 12 12 13 14 14 15 14 13 12 9 3 4 5 6 1 8 9 8 8 5 5 4 4 6 3 1 3 2 5 5 3 5 5 6 5 5 5 5 5 7 8 4 6 5 6 7 6 6 3 9 3 5 2 5 8 7 6 10 6 4 5 8 11 10 9 6 3 4 8 8 10 9 9 8 9 11 7 5 6 6 4 7 5 5 3
13 12 12 12 13 14 15 14 14 14 7 7 7 6 6 4 4 5 7 8 7 5 5 5 6 4 1 4 3 3 6 3 5 7 3 6 5 5 5 5 7 6 1 5 8 3 4 4 5 5 5 3 11 3 5 5 6 9 5 5 8 6 8 9 7 9 7 7 11 8 9 10 10 9 10 13 10 12 6 6 2 7 6 5 5 3 3
13 12 12 13 14 14 15 14 14 13 10 8 6 4 4 4 7 5 6 7 6 6 4 7 2 5 4 5 6 6 5 5 7 6 3 2 4 4 4 6 3 5 5 8 8 7 6 5 6 5 4 8 8 3 6 7 10 5 0 6 3 6 6 9 9 9 10 12 11 7 7 11 9 11 5 3 8 12 11 7 9 8 8 11 10 1 6
12 11 13 13 14 14 14 13 14 11 10 5 7 5 4 6 3 4 6 5 6 6 5 4 4 2 3 2 4 4 6 6 4 4 6 4 3 5 6 4 5 8 6 7 8 10 6 5 4 5 2 3 4 3 4 3 4 7 6 9 5 2 4 5 7 7 4 6 6 3 5 6 11 7 5 1 9 11 8 6 5 6 3 3 10 2 9
11 11 13 13 14 15 14 14 13 9 10 8 4 6 4 4 3 5 4 5 6 4 5 4 5 2 2 2 3 6 5 2 4 5 6 6 5 4 6 5 3 5 6 5 7 8 7 7 7 7 3 0 3 4 2 5 6 9 4 5 3 2 6 7 6 8 4 7 3 5 8 4 8 3 6 5 8 9 8 8 5 5 5 3 5 6 8
11 11 12 13 14 15 14 14 13 7 9 7 5 5 5 3 2 1 2 3 4 7 4 4 3 3 7 1 2 3 5 5 4 4 7 1 4 7 4 9 7 6 7 4 4 6 7 7 3 5 6 5 7 3 4 5 5 6 5 6 7 7 6 7 6 10 2 3 6 5 5 6 2 2 2 2 2 2 2 5 5 4 3 1 4 5 8
10 12 12 13 14 14 14 14 13 7 5 3 6 3 5 5 2 1 2 3 5 7 5 0 3 5 3 3 4 4 3 4 3 3 5 7 7 7 3 4 3 4 4 5 5 4 6 4 1 4 4 5 5 4 6 3 8 5 5 8 6 2 1 4 6 4 2 4 3 4 3 4 6 4 6 4 5 8 6 7 8 8 7 7 10 8 10
10 11 12 13 14 14 14 14 12 8 4 5 6 7 4 4 2 6 2 1 3 3 3 2 4 3 1 2 4 1 3 2 3 5 3 3 3 4 5 9 5 4 4 5 4 3 2 4 1 3 4 7 5 2 2 2 3 4 5 1 7 2 2 4 6 5 7 4 3 1 1 1 6 9 12 12 6 6 8 7 10 4 7 8 9 8 6
10 11 12 13 14 14 14 14 12 8 7 4 6 5 6 4 3 3 4 4 4 3 4 6 6 5 6 4 4 4 3 2 2 2 4 4 4 5 4 5 5 4 3 2 4 3 2 2 2 2 4 4 4 5 1 3 3 2 1 3 3 4 2 1 1 4 6 4 6 6 6 6 10 12 14 13 13 8 9 7 8 8 4 5 3 3 2
10 11 12 13 14 14 14 14 12 10 8 5 4 6 2 3 2 4 5 2 2 5 3 3 2 4 4 4 5 4 4 2 3 1 4 2 3 3 4 2 4 4 4 1 4 5 5 3 3 1 2 1 3 3 2 2 1 3 4 2 3 1 4 2 2 4 6 5 5 6 7 5 2 9 10 9 8 8 3 8 9 9 9 2 0 6 7
10 11 12 13 14 14 14 14 13 9 8 4 4 4 2 3 3 5 4 3 2 5 5 4 4 5 4 4 3 2 3 2 4 2 2 6 3 1 3 4 4 4 3 2 3 5 5 3 3 3 1 2 3 3 4 4 2 2 3 3 2 3 1 1 2 2 1 4 6 4 4 10 1 3 7 7 6 9 7 7 8 9 8 6 7 6 6
10 11 12 13 13 14 14 14 13 10 8 6 6 6 5 5 5 6 3 3 2 1 5 2 2 6 5 6 5 5 5 4 3 1 3 1 1 2 3 4 3 2 5 3 5 5 3 3 3 3 3 4 3 4 5 5 5 3 1 1 3 2 1 1 2 2 2 4 6 5 8 2 2 4 9 8 4 6 6 7 8 9 9 7 9 8 7
10 11 12 13 14 14 14 14 13 12 9 7 6 5 3 4 5 5 4 5 3 5 5 5 3 4 1 3 5 5 4 3 3 3 4 5 3 4 2 2 3 2 2 4 5 7 7 6 5 5 7 6 4 4 6 8 7 5 4 2 2 1 1 1 0 1 1 3 5 5 3 3 2 1 8 11 1 6 1 5 10 10 9 6 6 6 7
10 11 12 13 14 14 15 14 14 13 11 9 6 5 5 4 4 5 4 2 1 2 4 5 4 5 4 4 2 4 2 5 5 3 5 3 4 4 3 1 5 2 4 3 6 6 5 2 4 7 7 7 5 5 7 10 8 5 4 3 3 3 1 0 2 7 5 1 3 5 9 7 10 4 7 8 4 6 4 2 6 10 8 6 5 7 7
10 11 12 13 14 15 15 15 15 14 12 11 7 7 6 3 4 5 5 5 1 3 4 2 5 5 2 2 3 5 8 5 5 6 5 4 5 4 1 2 1 3 1 5 5 6 5 3 5 6 3 5 4 5 9 4 6 7 3 2 1 0 1 5 1 3 3 6 7 5 5 3 6 5 5 4 3 3 4 3 3 8 9 8 4 6 6
9 11 12 13 14 15 16 15 15 14 13 14 7 6 2 2 4 5 6 4 1 3 3 5 3 1 4 3 2 5 1 1 5 4 6 6 5 5 4 1 2 3 5 6 5 3 4 2 3 2 6 8 8 3 3 6 5 7 4 5 4 5 4 1 5 4 4 5 6 3 3 4 5 8 8 5 2 2 1 3 3 5 6 4 2 4 5
10 11 12 13 15 16 16 16 16 15 13 12 7 5 1 3 3 4 4 3 1 3 4 3 2 3 3 4 6 4 2 2 3 2 2 3 4 2 4 2 2 4 4 5 5 5 4 5 4 7 0 4 4 6 3 6 6 7 6 5 3 3 3 2 2 3 1 3 4 6 4 4 8 9 7 6 1 3 3 4 3 5 8 2 2 4 5
10 11 13 14 15 16 16 16 17 16 15 13 8 6 1 2 2 5 6 2 2 4 5 2 4 5 1 5 3 3 3 3 5 2 1 4 4 6 5 4 5 4 3 3 2 4 3 5 6 4 1 5 5 5 4 5 5 3 3 2 1 2 1 5 4 2 8 9 8 6 5 3 10 10 7 5 2 3 3 3 3 6 7 3 2 4 5
10 11 12 14 15 15 16 16 16 16 15 13 9 8 1 2 1 2 6 3 2 3 4 3 4 8 5 1 4 2 4 5 3 2 2 3 3 5 3 3 5 2 5 1 4 3 4 3 1 2 2 8 4 4 4 5 3 1 4 4 3 2 5 4 3 4 2 4 8 8 7 5 12 11 4 9 4 2 4 3 5 7 3 5 4 5 5
11 11 12 14 15 16 16 16 17 16 16 14 8 3 5 2 1 3 6 3 4 6 6 4 3 6 4 6 3 2 1 4 1 3 0 1 4 4 3 3 4 3 2 3 2 1 3 4 2 4 3 4 6 7 8 7 5 5 5 8 4 4 4 4 4 3 1 5 7 4 4 6 15 13 1 12 3 4 2 4 6 7 5 6 6 5 6
11 11 12 13 15 16 16 17 17 17 17 16 10 4 5 2 2 3 5 3 6 5 5 3 4 8 7 7 6 6 7 7 6 7 5 3 4 1 1 1 4 0 1 1 2 3 1 2 3 2 3 1 4 3 7 6 9 8 8 4 8 11 1 3 6 7 3 6 6 5 3 6 10 10 6 7 5 3 2 3 4 7 8 7 7 8 8
11 11 12 13 14 16 16 17 18 18 18 17 14 5 6 3 2 3 4 1 4 3 6 6 7 7 7 7 5 5 7 7 8 6 6 3 4 3 1 3 3 1 3 2 3 2 1 3 3 3 4 4 2 7 9 6 7 7 8 3 3 11 9 7 8 9 5 6 6 4 5 7 8 9 8 7 7 7 6 7 8 8 8 8 9 10 10
11 11 12 13 14 15 16 17 18 18 18 18 14 2 6 4 4 1 2 9 7 7 6 6 4 6 6 7 5 4 4 4 5 4 5 6 2 3 2 2 3 2 3 1 3 5 6 5 5 4 4 4 5 8 10 9 7 7 9 10 10 8 12 12 13 15 17 14 10 8 7 8 10 10 9 8 9 8 8 8 8 9 10 8 9 10 11
10 12 12 13 14 15 16 17 17 17 18 18 13 4 4 4 5 6 6 5 4 5 4 4 3 4 6 7 6 5 5 5 6 4 3 2 4 2 5 5 4 4 3 4 3 7 6 4 4 2 4 6 1 7 8 10 9 9 9 9 9 9 5 7 7 8 5 7 8 10 10 9 10 11 11 10 9 8 8 9 9 9 9 11 10 9 8
10 11 12 13 14 15 15 16 17 17 18 17 14 3 3 5 1 4 3 4 3 2 4 3 5 4 5 6 5 5 6 3 0 1 1 2 4 6 7 5 3 3 8 5 4 9 4 6 6 3 6 4 0 8 7 9 10 8 9 8 7 8 8 12 12 13 10 9 10 10 11 11 11 10 10 11 11 10 9 9 10 11 11 11 10 10 11
10 11 12 12 14 14 15 15 16 16 17 19 15 3 2 4 5 4 4 2 4 5 4 5 6 3 5 5 8 7 4 3 3 5 5 7 7 6 5 4 4 2 3 4 5 5 5 5 5 5 8 9 8 9 10 11 12 11 10 8 6 7 0 8 10 11 12 12 10 10 12 13 13 13 12 11 10 11 12 11 12 12 13 14 12 11 10
9 11 12 13 13 14 15 16 16 15 15 16 10 3 2 3 3 5 5 3 3 4 3 5 5 7 6 9 7 5 6 5 3 4 5 5 5 4 4 5 4 4 7 9 8 6 6 7 6 9 9 9 8 10 9 8 9 7 8 9 6 7 10 10 9 7 6 6 8 4 4 7 8 10 11 12 12 12 12 12 12 12 13 13 13 12 11
10 10 11 12 13 14 15 16 16 16 14 14 10 1 2 2 2 3 4 5 6 2 5 5 6 6 4 10 7 8 7 6 5 5 6 7 7 5 4 4 4 6 6 7 7 6 7 9 10 6 6 9 9 11 10 11 10 11 11 10 9 8 3 6 2 4 6 7 8 7 10 10 9 9 10 10 10 10 11 12 11 11 10 10 11 12 11
9 10 11 12 13 14 15 15 16 15 16 13 4 2 4 2 2 3 5 4 5 1 5 6 5 4 2 6 4 8 8 7 7 6 6 7 7 7 8 8 8 9 10 9 7 7 7 7 4 5 4 6 4 8 7 9 9 11 10 10 9 9 12 14 12 12 11 8 8 8 8 9 9 9 9 9 9 10 11 11 10 10 10 10 10 10 11
8 10 10 11 13 14 15 15 16 15 14 7 4 6 5 4 2 3 6 5 6 3 4 3 5 3 2 4 7 7 9 9 9 9 9 8 8 7 8 8 8 7 8 6 6 8 7 6 5 7 5 5 2 6 7 8 10 11 10 11 10 10 10 10 9 10 10 9 10 11 11 10 9 9 9 8 8 8 8 9 9 10 10 10 10 10 10
8 9 10 11 13 14 15 16 15 15 13 5 4 4 4 4 3 3 8 7 5 5 2 3 5 4 5 3 5 7 9 8 8 8 9 8 8 8 8 8 8 7 7 7 7 8 5 7 5 6 6 9 4 6 8 8 10 11 11 10 10 11 11 11 10 11 11 10 10 10 10 9 8 9 9 9 8 7 8 9 10 10 9 9 9 9 8
8 9 10 12 13 14 15 15 14 14 7 3 3 4 4 4 4 7 9 7 6 3 4 5 4 3 4 3 4 3 7 6 7 5 6 6 9 8 10 9 8 8 7 7 5 5 6 5 5 7 8 7 5 7 8 9 10 10 10 11 10 11 11 11 10 9 9 9 10 9 8 8 6 6 7 7 8 7 8 8 8 8 8 8 8 8 8
8 9 11 12 14 14 14 14 13 9 4 5 3 3 4 2 5 7 6 5 5 1 2 2 3 3 3 7 5 5 3 2 6 4 7 3 8 6 8 7 8 8 5 5 5 6 6 5 4 7 9 7 5 6 8 9 11 11 11 10 10 10 10 10 9 8 7 6 3 5 7 7 8 7 7 7 7 7 7 7 6 5 6 6 7 7 7
9 10 12 13 14 15 14 13 13 11 8 5 3 4 4 9 5 5 7 4 2 2 2 3 3 3 5 4 4 3 7 2 7 5 6 3 4 6 5 6 6 5 4 6 5 5 4 4 7 8 6 7 5 7 9 10 11 11 11 10 9 9 8 8 8 8 8 7 6 7 8 7 6 6 6 6 5 5 5 5 5 5 5 5 4 4 4
10 11 12 14 15 14 15 12 6 5 2 2 4 3 4 8 7 8 6 4 2 1 1 2 2 6 4 3 3 4 4 2 5 5 4 2 2 6 4 4 1 3 3 1 4 4 4 5 6 5 8 7 5 7 7 10 10 9 8 9 8 7 7 8 8 7 7 7 7 7 6 6 6 5 5 6 5 4 3 4 4 3 3 3 3 3 3
10 12 14 13 14 12 6 6 5 4 4 3 5 5 4 8 8 4 3 2 5 0 3 2 3 3 3 5 5 3 4 7 5 5 5 3 5 3 5 4 6 3 1 2 5 5 5 1 1 6 3 5 7 5 8 8 9 9 8 8 6 6 7 7 8 7 7 7 7 6 5 5 5 4 3 3 4 3 3 2 3 3 3 3 2 2 1
11 13 15 14 7 5 4 1 2 3 4 4 4 8 8 7 3 3 4 4 4 4 2 2 3 5 2 5 3 2 4 4 4 5 5 3 3 1 4 3 5 2 4 5 4 4 2 1 4 6 5 7 7 9 9 9 9 8 7 6 5 6 5 6 7 7 8 7 6 5 4 4 4 3 2 2 2 2 3 3 2 2 1 2 2 0 1
12 13 7 5 5 2 2 2 2 3 4 3 3 2 4 4 3 3 2 1 2 4 0 6 3 5 2 6 5 4 4 4 3 4 3 3 3 3 2 3 2 1 5 3 4 3 4 3 5 7 7 8 9 8 9 9 8 7 6 6 4 4 6 6 3 5 5 5 4 4 3 2 1 3 2 1 1 3 3 3 3 1 1 1 1 0 0
10 5 5 5 4 2 1 5 4 3 3 3 3 2 3 3 3 2 1 1 2 2 1 2 5 4 4 5 6 1 3 3 3 4 4 1 0 3 2 3 1 1 5 3 3 5 3 5 5 6 7 8 8 8 7 8 7 6 6 5 5 5 5 4 3 2 3 4 4 3 3 2 1 2 1 2 4 4 4 3 2 2 1 2 1 1 1
5 5 3 3 0 5 6 5 2 3 4 3 2 1 3 2 2 2 2 2 2 3 2 3 2 3 2 6 6 6 2 4 3 5 4 4 4 1 1 1 2 2 4 3 4 4 2 5 4 5 7 5 8 8 7 7 7 6 6 6 5 4 4 4 4 3 2 3 3 2 2 1 1 2 0 1 2 3 3 3 3 3 2 1 2 2 1
6 4 4 2 6 6 7 6 5 4 3 2 1 0 2 2 0 1 2 3 2 2 3 5 5 6 1 4 5 5 3 3 5 6 3 3 1 2 3 3 0 1 2 3 3 2 2 3 4 4 6 7 9 8 8 7 6 6 5 5 4 4 4 4 3 2 3 4 4 3 3 2 0 1 2 2 1 1 1 1 3 2 2 2 4 4 0
3 4 4 4 5 6 6 5 3 2 1 1 2 1 1 1 2 3 2 3 4 3 5 5 5 7 5 1 6 5 3 5 1 1 2 3 0 1 3 2 1 2 3 3 3 2 3 3 4 5 7 10 10 9 7 8 6 6 6 5 5 4 5 4 5 3 3 3 3 2 3 2 3 1 0 2 1 1 1 1 1 1 2 1 1 1 1
6 6 6 3 5 4 2 3 0 0 1 0 1 2 2 2 3 4 3 1 2 4 4 3 7 6 6 2 6 4 3 1 2 1 1 3 1 1 3 2 2 2 3 4 3 3 3 3 3 6 9 10 10 9 7 7 6 6 6 5 4 3 4 5 4 4 3 3 3 1 2 1 2 3 4 1 1 1 2 2 2 2 2 2 2 1 1
4 4 4 3 3 2 1 2 1 0 1 1 3 3 4 3 4 3 3 4 3 3 7 6 7 7 5 1 2 4 3 3 1 2 3 2 2 2 1 3 2 4 2 3 2 4 3 3 3 9 10 10 8 8 7 7 6 5 5 5 6 5 5 4 4 5 5 5 3 2 3 1 4 2 2 1 3 2 1 2 2 2 1 2 3 2 2
4 2 3 2 1 1 1 1 2 1 3 3 3 3 4 5 4 5 3 5 5 7 8 6 7 6 5 4 2 4 2 3 1 1 2 2 2 2 2 2 2 2 3 4 3 3 2 3 5 11 12 11 10 9 8 7 6 5 6 5 6 5 4 4 3 2 2 1 2 1 1 1 3 1 2 1 1 2 3 2 2 3 3 2 3 3 2
3 4 4 3 2 3 1 2 2 3 2 3 3 4 6 5 6 4 7 6 6 8 8 7 6 6 5 4 2 3 2 2 3 2 3 2 3 2 2 2 2 3 2 3 4 4 5 4 7 9 11 12 11 10 9 6 5 5 5 5 5 4 2 2 1 1 1 0 2 1 2 1 2 1 2 1 2 2 2 2 2 2 2 2 3 4 3
2 2 2 1 2 2 2 2 4 2 3 5 3 2 1 4 5 6 5 4 8 7 7 6 6 5 5 4 2 2 2 2 2 2 2 3 2 2 0 1 2 2 4 4 4 3 4 6 7 10 11 11 11 10 8 6 6 5 4 5 4 4 3 2 2 2 3 1 2 3 2 1 1 2 1 2 1 2 3 3 2 3 2 3 3 3 3
3 1 1 2 3 3 5 3 2 2 1 0 3 2 4 5 6 7 6 6 7 7 7 6 6 4 3 2 3 3 3 3 4 2 0 3 2 2 2 1 2 2 2 3 3 3 3 7 10 9 11 11 10 9 8 6 5 5 5 4 4 4 4 2 1 3 1 2 1 2 1 1 2 1 3 3 1 2 2 4 3 3 3 3 3 3 4
1 2 2 1 1 3 3 3 4 4 5 3 3 4 6 6 6 7 6 6 7 7 6 5 3 2 3 2 2 4 3 3 3 3 2 2 2 3 3 3 4 4 2 3 4 3 5 9 11 11 12 11 10 8 7 6 6 5 4 4 4 4 3 3 3 2 1 2 2 2 2 1 4 3 4 3 5 3 1 3 4 4 4 4 3 3 4
2 1 1 2 2 2 2 3 5 3 5 5 5 6 5 7 8 7 6 7 6 6 4 4 1 1 3 2 3 2 2 2 2 3 3 3 2 3 3 3 3 3 4 5 2 5 7 9 11 11 11 10 8 7 7 7 5 5 4 4 4 3 3 4 4 4 2 2 1 2 3 1 5 4 3 4 5 4 4 4 4 5 4 4 4 4 4
1 2 2 0 1 3 4 4 4 4 4 6 6 6 6 8 8 8 4 6 6 4 3 3 2 3 3 2 2 3 1 2 2 4 3 4 2 2 3 3 4 3 4 3 5 5 9 9 9 10 10 9 8 7 6 7 6 5 4 5 4 4 4 4 3 4 5 4 2 3 5 3 3 4 5 4 5 5 5 4 4 4 4 4 3 4 4
2 3 3 3 2 3 4 1 3 5 6 6 6 6 6 9 8 7 5 6 5 5 3 4 3 2 2 3 2 2 2 2 1 2 3 2 1 2 2 2 3 4 5 5 8 8 8 8 9 8 8 8 7 6 6 6 5 5 5 5 5 4 4 4 3 2 1 1 2 1 2 0 2 3 3 4 5 5 5 4 3 3 3 4 3 4 4
Wind_Direction
328 327 329 327 330 331 331 329 330 326 325 312 352 318 222 217 131 94 160 174 201 211 229 220 210 228 77 24 224 108 200 271 124 249 190 228 215 266 239 255 263 241 264 276 260 268 268 266 260 256 164 126 98 284 225 299 245 221 216 216 201 166 236 222 233 225 221 121 143 186 223 235 235 236 264 234 230 248 265 258 258 278 290 284 264 242 113
323 327 328 329 331 332 332 330 326 325 331 315 297 258 236 188 119 161 173 185 213 246 227 187 206 177 67 264 239 117 299 216 204 227 162 252 177 228 236 250 243 285 272 279 264 297 281 242 247 238 192 85 288 259 234 212 260 232 25 296 165 202 204 248 220 219 260 256 200 198 207 220 230 237 227 243 248 245 213 143 30 257 260 239 273 262 155
325 326 326 331 332 332 333 329 323 323 323 289 249 251 260 162 157 166 163 188 226 227 268 290 212 149 201 210 225 185 213 206 304 325 246 203 262 267 248 267 3 265 260 262 267 267 260 264 252 302 299 124 193 108 257 183 240 48 117 321 163 213 212 219 226 222 221 213 202 201 199 206 220 225 247 322 273 258 258 234 216 246 233 242 248 184 79
322 326 326 330 332 333 332 329 324 327 337 304 215 247 243 189 151 155 161 206 207 254 288 289 297 160 207 234 244 250 230 144 216 248 242 269 304 264 298 293 255 260 268 264 250 245 221 240 244 204 251 241 118 100 137 14 9 7 350 302 276 270 297 260 290 291 299 333 2 0 252 297 236 176 169 280 288 275 279 289 262 249 1 314 17 36 134
324 326 325 332 338 333 334 332 327 337 341 336 273 266 247 249 224 160 173 167 213 242 212 198 241 228 215 221 206 219 249 246 169 173 257 181 261 265 245 268 263 272 271 279 276 268 248 217 239 274 299 47 61 148 81 92 30 352 297 253 197 273 238 219 248 255 149 222 52 324 309 344 343 239 195 183 238 265 242 238 249 29 271 246 48 114 151
328 326 330 337 336 334 335 333 332 346 341 323 280 249 204 240 116 248 59 257 161 196 185 197 140 63 227 99 238 218 206 208 206 162 248 106 211 259 179 236 241 247 241 249 263 271 264 241 248 296 267 275 131 183 80 63 34 299 234 210 243 248 237 209 197 244 223 116 82 33 338 90 284 267 60 186 53 230 43 38 45 267 285 149 152 209 137
327 326 334 337 336 338 336 336 338 338 349 273 252 268 230 281 123 143 129 251 69 27 39 352 141 172 259 162 221 231 217 199 197 240 188 217 185 219 192 240 261 279 274 252 240 236 254 211 268 311 327 297 13 271 138 87 23 22 2 25 1 280 313 349 242 245 37 76 75 97 40 305 89 36 30 58 72 51 42 42 31 43 75 113 133 135 100
328 328 334 337 337 339 340 337 340 343 313 250 246 246 254 195 221 156 185 317 117 147 160 178 215 170 135 227 166 209 203 198 203 206 224 222 213 222 263 220 188 303 284 225 217 77 327 14 206 31 318 281 238 18 31 307 49 20 28 22 29 347 170 142 258 231 224 219 204 180 24 319 89 45 27 14 4 57 41 35 21 62 108 104 121 113 98
328 330 335 338 340 341 342 339 343 341 319 252 228 226 237 319 340 318 200 178 108 151 180 192 203 150 182 214 156 217 215 169 185 239 204 191 224 251 229 275 313 270 260 89 108 71 30 298 337 166 322 332 42 297 83 240 241 309 22 43 15 320 317 347 67 266 224 196 200 197 160 211 80 47 26 18 23 23 29 37 26 22 17 130 143 170 132
332 333 336 340 341 342 341 341 340 340 310 285 276 242 240 264 262 271 277 215 166 227 96 308 233 196 82 26 149 186 195 171 151 138 272 163 188 217 259 275 285 260 279 173 52 10 331 333 321 0 211 67 340 26 45 340 348 196 170 169 269 305 288 266 260 258 271 142 187 189 186 178 150 28 6 4 18 359 79 68 41 28 360 9 79 60 70
334 335 338 340 342 341 341 343 341 349 326 284 284 276 244 247 247 208 218 214 150 234 198 156 245 65 93 175 170 207 249 199 175 186 207 208 131 295 265 247 245 266 222 86 350 321 322 283 225 229 228 167 147 104 97 86 72 113 154 155 175 166 184 236 26 268 175 170 144 148 205 217 104 17 3 6 14 11 26 45 30 26 26 53 60 87 99
338 336 339 340 342 341 342 342 342 346 334 300 287 283 297 327 270 254 226 224 146 264 247 97 26 106 207 163 212 192 197 215 248 133 225 27 212 313 242 228 246 231 72 267 274 275 254 216 216 213 211 192 174 99 79 94 111 111 141 243 140 159 203 228 24 239 181 171 154 192 216 89 106 45 20 357 0 22 41 62 43 36 32 62 83 88 75
336 336 338 341 341 341 341 341 343 342 346 317 281 275 334 324 286 268 226 254 159 181 236 121 141 136 69 119 203 213 208 242 197 228 271 238 236 186 253 338 253 30 317 306 270 253 243 216 203 212 185 190 151 139 129 120 96 57 62 112 128 93 204 135 194 230 202 189 194 214 85 119 115 68 7 352 299 16 302 92 45 26 18 21 71 81 102
336 336 338 338 340 340 341 342 341 339 342 330 278 270 293 291 261 245 234 253 134 139 15 75 149 165 177 192 263 273 262 227 239 241 238 205 232 245 158 319 18 340 267 270 254 239 243 241 198 209 186 183 146 154 97 74 64 75 76 86 120 92 114 86 237 175 186 164 109 80 133 114 46 43 9 13 0 343 9 26 47 19 6 12 86 96 103
337 335 336 337 340 341 343 343 340 339 335 331 282 276 263 256 293 296 319 295 205 124 223 267 87 123 163 237 245 242 216 190 211 204 200 157 236 216 316 358 23 310 334 266 224 207 232 203 215 207 219 170 173 199 177 114 112 114 136 54 73 138 282 138 239 217 146 127 117 146 189 97 57 33 9 26 27 302 286 263 99 24 22 12 49 105 113
337 336 336 339 342 343 344 342 341 338 337 332 283 267 288 9 305 278 275 271 142 194 93 51 28 350 230 179 203 269 44 186 221 175 187 190 202 191 150 82 40 292 257 237 252 241 217 169 230 211 216 221 177 134 188 137 116 69 74 55 16 327 264 176 220 266 230 182 168 148 97 71 20 5 360 15 15 221 194 247 86 23 15 27 67 101 120
338 339 339 341 345 343 343 342 340 342 339 346 318 293 136 48 294 295 278 227 280 53 69 80 56 241 248 153 192 205 254 250 233 209 194 205 190 147 124 121 148 220 237 258 239 227 208 210 200 226 79 323 251 162 179 139 128 114 102 65 336 296 204 271 301 226 17 78 83 81 59 66 360 349 350 359 66 184 234 224 95 354 352 39 96 134 148
342 341 341 342 342 343 343 343 343 343 339 341 315 296 49 89 285 290 256 260 117 89 67 45 279 236 22 30 22 49 256 230 238 197 282 137 203 182 136 170 184 107 306 259 270 235 202 224 201 209 161 265 177 225 125 103 87 49 86 63 140 303 107 94 257 141 124 117 102 116 107 67 356 349 335 4 343 230 260 34 6 333 330 73 105 119 135
342 341 341 342 340 342 343 343 344 342 339 336 319 264 143 3 304 282 285 136 147 105 71 80 46 48 40 58 29 18 19 347 344 238 174 184 89 42 335 38 330 148 188 238 226 216 206 180 251 110 118 244 222 93 115 72 92 3 357 143 162 26 324 148 118 58 39 85 96 87 88 34 350 342 356 5 283 299 53 21 304 293 12 101 111 132 138
344 342 341 342 340 340 344 344 343 340 335 335 322 289 73 347 301 307 313 98 100 114 127 96 74 90 42 6 27 18 71 188 24 326 132 61 114 199 178 160 160 274 178 214 207 319 242 199 174 195 181 103 80 102 90 92 72 85 79 21 38 11 316 44 42 334 125 103 106 110 75 26 2 344 248 15 14 52 337 325 350 36 62 84 94 95 74
346 344 343 342 341 342 343 343 341 340 337 336 339 301 116 59 348 295 286 112 121 110 104 84 69 61 38 57 23 16 356 2 356 320 6 36 55 244 262 21 95 117 53 230 219 164 310 126 169 88 12 106 131 198 108 106 91 58 67 78 35 350 314 70 63 8 34 55 57 56 21 343 9 22 43 20 31 357 351 316 46 48 56 61 64 62 80
348 344 344 344 342 343 344 344 343 342 339 338 331 276 101 80 65 21 350 44 101 93 77 60 68 73 56 52 48 16 9 0 1 344 314 348 149 268 54 203 142 13 116 198 137 133 57 47 83 107 114 94 167 112 157 122 86 82 54 353 71 21 56 38 70 36 55 70 87 87 52 40 37 39 54 59 51 55 55 62 43 48 54 71 81 81 86
347 344 346 345 343 343 346 346 346 342 340 340 338 239 105 143 103 13 123 96 103 110 131 124 133 117 116 80 56 28 28 29 341 342 335 312 287 170 316 127 121 69 136 0 330 80 90 108 74 30 91 89 83 95 87 73 90 81 81 72 94 95 101 99 88 85 86 80 84 89 76 61 61 56 53 53 58 59 62 64 65 49 56 56 74 68 80
345 343 344 345 344 346 347 347 345 344 342 343 339 335 114 112 135 158 125 127 122 111 94 85 108 54 33 37 39 45 34 38 20 11 3 320 320 93 108 64 83 148 45 53 279 108 116 103 102 122 52 329 75 99 98 92 81 92 101 110 95 94 100 92 107 139 103 72 69 76 73 80 83 80 69 63 63 68 72 76 71 75 76 81 78 78 76
344 344 343 344 345 346 346 347 346 346 344 341 335 317 114 144 64 333 137 136 161 130 103 85 60 48 58 48 34 35 29 354 281 6 188 233 289 350 49 37 334 8 107 91 131 116 128 120 130 103 77 9 219 94 93 109 113 117 100 98 115 75 44 69 60 72 85 105 99 88 81 71 62 62 70 67 69 72 77 84 88 87 87 84 89 94 94
344 343 342 342 342 344 345 347 346 346 347 338 323 288 131 76 358 320 276 38 80 117 116 99 96 72 55 53 42 31 358 14 50 57 52 64 56 48 86 119 114 295 148 178 189 119 113 105 89 82 82 68 53 83 74 60 79 66 77 60 53 102 71 76 91 97 101 106 110 108 91 77 72 71 69 74 81 90 94 99 103 103 101 96 85 78 76
340 341 339 339 339 344 344 345 345 345 342 338 326 356 73 95 20 345 339 341 130 100 113 105 110 100 77 63 41 41 36 52 51 72 76 74 77 82 91 113 112 102 80 68 58 72 73 77 75 79 70 74 69 75 87 88 77 92 89 89 75 100 90 117 126 109 108 111 123 141 105 94 83 76 82 90 90 89 92 95 95 101 104 104 99 90 80
338 338 336 336 339 341 344 341 342 339 339 326 300 352 29 57 54 359 332 357 328 102 120 123 114 96 99 59 41 47 41 49 60 65 68 66 64 56 60 66 101 111 107 106 102 92 92 87 83 86 90 95 87 81 76 77 75 70 66 53 38 55 8 240 93 95 103 101 105 101 87 91 85 93 86 78 83 92 92 94 94 92 99 103 106 107 98
334 336 333 337 337 339 339 338 336 333 333 315 287 184 132 79 46 45 13 346 292 193 108 106 127 144 64 49 19 71 61 68 68 70 67 71 73 69 65 71 69 71 71 70 73 76 73 67 61 68 62 355 55 98 92 81 74 73 67 65 60 58 40 57 80 94 94 92 94 101 102 98 102 97 98 95 91 86 88 88 92 99 100 103 101 103 105
329 332 331 334 334 336 335 334 331 328 326 303 252 195 155 127 77 26 9 328 310 308 130 124 103 93 108 45 61 66 78 67 69 67 71 76 74 77 83 79 78 81 83 80 85 87 82 89 80 82 62 290 108 97 98 93 87 82 79 79 74 71 70 73 80 96 102 96 94 97 104 106 101 96 86 91 95 94 93 95 94 101 100 102 108 111 115
325 328 330 329 332 332 330 329 326 323 313 282 227 181 181 154 122 53 359 326 333 308 111 107 97 113 96 64 40 63 79 76 67 72 71 70 74 77 80 92 88 84 89 89 88 92 106 93 98 87 78 12 49 104 98 99 96 95 90 89 83 84 85 86 90 99 109 112 112 113 109 105 106 103 101 104 106 96 96 104 109 97 112 112 111 115 115
321 322 324 328 326 327 323 322 321 318 294 331 346 4 10 25 31 331 326 311 313 259 120 127 145 133 86 86 73 34 78 93 97 82 81 83 82 79 72 60 67 64 72 86 83 92 78 83 78 81 81 48 57 94 95 95 99 101 107 94 89 91 99 101 101 102 103 111 115 108 106 109 108 96 93 89 92 95 95 96 99 129 165 124 116 109 119
313 318 319 323 321 318 318 314 312 317 352 9 340 241 123 347 316 298 321 316 266 241 166 149 108 135 134 104 126 85 341 183 110 117 83 61 98 93 90 87 85 85 78 87 87 91 96 98 97 85 72 82 87 90 92 92 99 106 96 93 94 91 87 88 93 97 94 83 67 104 107 106 110 113 109 102 102 109 120 112 108 104 101 105 118 121 121
309 316 317 316 315 314 310 308 301 296 273 249 166 105 67 16 331 2 327 280 322 92 249 119 150 138 109 202 167 98 294 128 114 119 99 53 91 114 107 100 74 74 60 89 109 114 112 98 91 95 97 79 84 94 92 98 105 108 107 106 106 102 97 95 90 93 102 109 108 97 98 105 107 106 116 106 84 70 84 99 108 109 103 102 111 120 115
311 311 314 311 307 310 304 291 279 230 190 116 86 77 25 355 334 296 302 310 208 125 66 164 135 131 158 171 128 112 308 211 116 112 109 87 271 120 135 117 122 101 81 119 102 92 110 99 110 96 87 102 95 89 103 112 107 100 99 106 103 107 104 95 94 92 93 100 103 100 112 117 126 131 120 126 134 117 85 93 116 108 108 109 98 106 134
310 310 307 305 302 292 271 228 239 210 157 112 88 68 15 309 295 286 293 277 308 21 157 152 182 143 148 142 143 132 264 88 93 103 95 117 88 81 109 108 100 70 231 121 108 121 103 175 237 96 105 89 78 89 97 99 98 101 103 101 96 88 93 96 93 89 85 84 94 109 113 130 131 139 155 124 124 132 131 144 123 107 94 100 83 90 147
306 310 303 288 270 208 216 147 104 352 34 34 357 331 301 288 227 243 225 231 182 280 266 167 201 147 158 100 98 138 238 128 169 125 161 142 93 108 126 128 92 112 106 103 105 102 97 290 95 105 95 98 95 85 87 92 99 97 87 79 96 121 114 100 102 109 113 118 124 135 139 131 136 179 152 159 144 145 182 177 138 139 129 96 96 91 93
311 305 278 214 204 180 129 142 98 45 327 308 290 218 170 227 164 177 181 205 39 287 289 266 106 107 139 150 126 127 256 127 227 121 101 118 128 86 91 87 96 208 112 101 82 10 85 86 89 95 96 96 104 102 102 100 92 85 84 91 87 72 103 114 127 117 115 132 133 128 131 131 140 136 162 228 249 181 215 240 150 100 129 180 149 242 242
279 245 231 231 214 154 84 100 67 19 297 167 249 218 153 213 154 169 155 106 182 188 221 198 117 183 150 111 116 89 334 149 148 149 149 52 257 132 229 138 175 186 113 135 123 267 112 100 117 122 116 127 124 111 106 96 90 83 86 76 92 121 122 117 78 40 41 36 45 38 4 33 48 75 295 190 188 220 263 294 303 165 204 225 192 227 294
203 205 201 194 179 90 97 106 123 193 209 181 194 205 146 236 174 174 205 181 186 114 217 132 114 123 50 140 152 134 33 307 177 165 125 131 321 151 158 110 117 169 145 162 123 235 156 135 129 133 131 147 124 138 129 123 108 103 96 100 100 90 79 76 81 55 39 52 7 40 94 136 39 45 13 244 247 239 224 232 254 276 231 208 70 306 296
215 209 199 128 103 119 124 151 179 215 202 168 138 213 133 183 296 103 183 191 171 140 307 111 163 150 141 127 151 145 131 298 14 66 124 109 30 303 130 117 187 177 149 119 136 215 147 135 159 155 137 140 140 140 127 123 117 112 102 102 107 108 113 111 110 133 168 141 147 122 110 65 117 231 91 7 343 337 22 305 271 240 245 137 165 217 170
357 327 2 75 107 117 146 168 199 139 25 165 161 153 180 149 161 208 221 205 148 153 162 159 160 168 154 144 107 125 114 325 329 132 133 128 320 304 113 130 187 167 130 91 157 178 150 154 170 132 136 141 138 145 153 128 128 119 115 110 116 134 122 100 104 78 64 107 112 124 84 354 46 267 327 43 44 138 131 292 291 241 230 248 308 251 191
256 250 272 166 143 163 195 144 117 211 156 105 180 141 180 188 188 192 170 324 84 181 120 350 64 70 81 129 95 14 65 5 248 182 124 109 167 248 138 133 187 146 114 148 204 152 166 164 168 142 148 142 149 156 145 133 131 116 112 117 119 122 108 105 83 80 54 59 76 48 70 169 103 24 20 302 253 339 331 289 255 236 242 235 227 227 201
217 205 189 146 143 134 204 139 195 35 330 185 160 164 190 186 184 192 193 164 167 150 148 175 157 185 144 231 139 132 136 155 287 74 89 129 172 110 133 167 114 77 137 180 186 172 174 156 175 140 146 143 155 155 130 136 134 133 130 128 125 136 131 140 160 152 144 157 150 147 226 74 289 171 182 167 276 313 300 268 293 17 304 286 271 243 215
160 180 145 138 140 162 156 54 233 185 201 194 223 188 173 198 174 202 171 124 191 140 162 162 168 176 132 119 119 136 239 137 163 191 128 177 137 149 176 122 119 175 187 169 180 144 123 144 122 135 147 151 151 142 141 152 147 145 126 148 151 145 144 137 130 158 130 68 45 291 284 76 266 330 259 311 287 278 282 308 263 256 230 224 239 234 182
195 154 144 119 13 285 212 168 161 212 223 160 207 189 189 185 169 152 103 168 145 142 161 161 169 135 140 168 258 143 171 146 149 118 149 150 131 111 57 99 187 175 183 182 180 172 178 161 148 148 152 151 149 146 154 158 132 119 158 149 139 147 125 90 85 0 41 339 113 291 53 221 270 10 331 349 294 325 334 324 309 274 282 277 264 249 199
165 186 194 132 135 182 231 177 197 200 167 187 208 213 210 87 106 117 134 143 141 148 131 154 139 146 150 151 132 133 160 117 119 136 222 125 110 97 243 185 180 167 182 182 174 187 177 151 143 146 150 148 149 154 161 149 143 174 143 124 165 142 148 147 125 262 84 170 226 221 225 149 278 214 280 289 357 347 306 290 294 305 277 259 255 275 273
160 197 216 166 190 177 192 212 153 118 304 110 112 79 96 117 131 126 150 165 126 136 134 129 124 140 133 130 254 145 126 114 125 132 35 104 127 135 145 156 186 192 178 188 190 221 157 141 143 147 149 150 152 158 156 156 156 162 134 158 155 156 159 174 202 112 114 242 169 237 236 211 240 290 254 251 264 280 328 296 283 269 269 267 271 263 253
230 181 193 183 183 169 207 151 188 170 153 146 157 163 166 168 127 123 124 117 141 142 146 168 135 169 129 169 125 118 135 137 159 142 153 169 143 160 168 182 171 183 183 221 182 185 128 136 141 147 146 156 159 165 155 160 162 161 166 165 168 155 172 151 140 102 180 225 227 207 218 14 329 291 281 290 273 266 285 273 280 271 265 263 263 273 286
186 144 304 194 186 208 149 178 224 145 146 147 168 166 166 136 136 129 147 147 133 132 143 102 161 200 127 176 144 151 159 183 124 150 183 167 166 187 180 166 172 210 175 235 116 118 141 143 142 148 150 156 161 162 158 159 163 174 167 163 153 181 165 131 165 156 202 83 5 3 350 277 246 265 287 308 318 324 284 261 263 261 267 272 279 275 282
286 245 225 300 264 164 167 190 188 153 158 167 170 151 154 137 141 140 179 137 141 127 160 158 140 135 153 137 133 161 148 101 155 172 179 177 178 178 166 172 208 201 135 124 123 135 138 143 145 147 151 156 166 156 155 148 175 194 165 169 169 170 146 173 161 165 174 168 148 210 239 279 347 327 320 308 274 279 285 264 252 267 262 264 268 269 264
190 205 199 178 264 173 197 264 155 161 155 152 152 136 144 135 141 133 155 148 148 190 178 118 144 140 134 167 182 120 123 190 180 170 174 131 191 159 197 207 145 113 117 130 131 131 135 149 147 146 156 154 163 156 156 155 181 167 169 170 164 170 168 167 161 166 12 262 216 276 324 259 323 301 310 311 306 287 276 292 283 260 256 262 264 271 273